Location: Mercogliano
(40.9167°N, 14.7333°E)
Time: 13:26:43
(UTC+00:00)

Cosmos 1025 Rocket - Pass Details

Date: 18 September 2020
Orbit: 595 x 617 km, 82.5° (Epoch: 28 October)

Event Time Altitude Azimuth Distance (km) Brightness Sun altitude
Rises 18:47:40 0° 351° (N) 2,885 6.9 -19.9°
Reaches altitude 10° 18:49:53 10° 351° (N) 1,979 6.0 -20.3°
Maximum altitude 18:54:16 85° 264° (W) 623 3.0 -21.0°
Enters shadow 18:56:08 34° 177° (S) 1,009 3.9 -21.4°
